{"data":{"norad_id":53474,"epoch":"2026-05-24T21:37:58.266912Z","epoch_age_seconds":86718,"freshness":"FRESH","line1":"1 53474U 22099K   26144.90136883  .00000328  00000+0  26776-4 0  9994","line2":"2 53474  97.4492 264.8825 0001330 172.3806 187.7442 15.05645662207449","mean_motion":15.05645662,"eccentricity":0.000133,"inclination_deg":97.4492,"raan_deg":264.8825,"arg_perigee_deg":172.3806,"mean_anomaly_deg":187.7442,"bstar":2.6776e-5,"rev_number":20744,"period_min":95.640032468675,"perigee_km":548.60308148174,"apogee_km":550.44583943022,"semimajor_km":6927.661460456,"source":"CELESTRAK","updated_at":"2026-05-25T13:38:17.430262Z"}}